Tracking 18840 objects as of 18-November-2017
HD Live streaming from Space Station
objects crossing your sky now

SL-16 DEB

Track SL-16 DEB now!
10-day predictions


NORAD ID: 25411
Int'l Code: 1998-045E
Perigee: 847.4 km
Apogee: 1,161.8 km
Inclination: 71.0 °
Period: 105.1 minutes
Semi major axis: 7375 km
RCS: 0.0951 m2 (small)
Launch date: July 28, 1998
Source: Commonwealth of Independent States (former USSR) (CIS)
Launch site: TYURATAM MISSILE AND SPACE COMPLEX (TTMTR)

Note: This is SATELLITE DEBRIS
aabbcc
Your satellite tracking list
Your tracking list is empty




NASA's NSSDC Master Catalog

Two Line Element Set (TLE):
1 25411U 98045E   17321.70428992 -.00000027 +00000-0 +14990-4 0  9991
2 25411 070.9893 055.3811 0213133 212.4756 146.3083 13.70598228965341
Source of the keplerian elements: AFSPC